This is the latest recevied weather packets stored in our database for station/object OE-11149. If no packets are shown the sender has not sent any weather packets the latest 10 day(s).
| Time | Temp. | Humidity | Pressure | Rain* | Wind** | Luminosity | Snow |
|---|---|---|---|---|---|---|---|
| 1787983893 | 8.33° C | 78% | 854 hPa | 0 mm | - | 99 W/m² | - |
| 1787982920 | 8.33° C | 75% | 853.9 hPa | 0 mm | - | 40 W/m² | - |
| 1787982092 | 7.78° C | 80% | 853.8 hPa | 0 mm | - | 53 W/m² | - |
| 1787981720 | 7.78° C | 81% | 853.7 hPa | 0 mm | - | 33 W/m² | - |
| 1787981119 | 7.78° C | 80% | 853.6 hPa | 0 mm | - | 26 W/m² | - |
| 1787980292 | 7.78° C | 81% | 853.6 hPa | 0 mm | - | 20 W/m² | - |
| 1787979919 | 7.78° C | 82% | 853.7 hPa | 0 mm | - | 20 W/m² | - |
| 1787979320 | 7.78° C | 84% | 853.6 hPa | 0 mm | - | 13 W/m² | - |
| 1787978493 | 7.78° C | 83% | 853.6 hPa | 0 mm | - | 7 W/m² | - |
| 1787978119 | 7.78° C | 89% | 853.8 hPa | 0 mm | - | 0 W/m² | - |
| 1787977520 | 7.78° C | 89% | 853.8 hPa | 0 mm | - | 0 W/m² | - |
| 1787976693 | 7.78° C | 89% | 854 hPa | 0 mm | - | 0 W/m² | - |
| 1787976320 | 7.78° C | 91% | 853.9 hPa | 0 mm | - | 0 W/m² | - |
| 1787975720 | 7.78° C | 90% | 854.1 hPa | 0 mm | - | 0 W/m² | - |
| 1787975120 | 7.22° C | 94% | 854.1 hPa | 0 mm | - | 0 W/m² | - |
| 1787974519 | 7.22° C | 95% | 854.3 hPa | 0 mm | - | 0 W/m² | - |
| 1787973920 | 7.22° C | 96% | 854.1 hPa | 0 mm | - | 0 W/m² | - |
| 1787973092 | 7.22° C | 94% | 854.3 hPa | 1.02 mm | - | 0 W/m² | - |
| 1787972720 | 7.22° C | 96% | 854.3 hPa | 2.03 mm | - | 0 W/m² | - |
| 1787972120 | 7.22° C | 97% | 854.4 hPa | 3.56 mm | - | 0 W/m² | - |
| 1787971293 | 7.22° C | 96% | 854.6 hPa | 4.06 mm | - | 0 W/m² | - |
| 1787970920 | 7.78° C | 94% | 854.6 hPa | 4.06 mm | - | 0 W/m² | - |
| 1787970320 | 7.22° C | 97% | 854.1 hPa | 4.06 mm | - | 0 W/m² | - |
| 1787969492 | 7.22° C | 98% | 854.3 hPa | 4.06 mm | - | 0 W/m² | - |
| 1787969119 | 7.22° C | 96% | 854.3 hPa | 3.3 mm | - | 0 W/m² | - |
* Rain latest hour (hover to see other rain measurements)
** Current wind speed in m/s (hover to see current wind gust speed)